CW9682 Anacortes WA US current weather conditions

sailwx.info

Wind from 135

Air temperature 7.8° C
Dewpoint -4.7° C

Last reported at 2019-Dec-05 17:46 UTC.
Time now 2019-Dec-05 18:22 UTC

Location: N 48°32' W 122°35'.
View on Google Maps.

See reports from other nearby stations

  
Tides and Currents Weather Stations Pressure Air Temp Water Temp Dewpoint Dewpoint Depression Visibility Wind Speed Wind Dir Waves Ship Positions
date/time (UTC)wind fromknots sea level pressurealtimeterstation pressurevisibilityair tempwater tempwave heightnotes
2019-Dec-05 17:46 135 7.8
2019-Dec-05 17:34 135 7.8
2019-Dec-05 17:16 090 0 gusting 0 7.8
2019-Dec-05 17:01 045 7.8
2019-Dec-05 16:49 081 7.8
2019-Dec-05 16:38 7.2
2019-Dec-05 16:25 270 7.2
2019-Dec-05 16:11 225 1 gusting 1 7.2
2019-Dec-05 15:55 075 1 gusting 1 7.2
2019-Dec-05 15:40 068 7.2
2019-Dec-05 15:22 135 7.2
2019-Dec-05 15:07 260 0 gusting 1 7.8
2019-Dec-05 14:54 158 7.8
2019-Dec-05 14:39 225 7.2
2019-Dec-05 14:27 113 0 gusting 1 7.8
2019-Dec-05 14:13 334 7.8
2019-Dec-05 14:00 180 7.8
2019-Dec-05 13:45 090 0 gusting 1 7.8
2019-Dec-05 13:30 165 7.8
2019-Dec-05 13:16 045 0 gusting 3 7.8
2019-Dec-05 13:04 100 0 gusting 0 7.8
2019-Dec-05 12:47 090 0 gusting 1 7.8
2019-Dec-05 12:32 076 0 gusting 2 7.2
2019-Dec-05 12:18 072 0 gusting 2 7.2
2019-Dec-05 12:01 111 0 gusting 2 7.2
2019-Dec-05 11:48 104 1 gusting 1 7.2
2019-Dec-05 11:35 119 1 gusting 1 7.8
2019-Dec-05 11:21 055 1 gusting 2 7.8
2019-Dec-05 11:04 098 1 gusting 2 7.8
2019-Dec-05 10:48 090 2 gusting 2 8.3
2019-Dec-05 10:36 8.3
2019-Dec-05 09:59 068 3 gusting 3 8.3
2019-Dec-05 09:24 072 2 gusting 4 8.3
2019-Dec-05 09:11 074 2 gusting 4 8.3
2019-Dec-05 09:00 062 2 gusting 4 8.3
2019-Dec-05 08:50 045 1 gusting 2 8.3
2019-Dec-05 08:40 099 1 gusting 3 8.3
2019-Dec-05 08:29 065 2 gusting 4 8.3
2019-Dec-05 08:19 061 0 gusting 4 8.3
2019-Dec-05 08:09 117 0 gusting 2 8.3
2019-Dec-05 07:58 084 0 gusting 3 8.3
2019-Dec-05 07:48 110 1 gusting 3 8.3
2019-Dec-05 07:37 115 0 gusting 4 8.3
2019-Dec-05 07:26 238 1 gusting 2 8.3
2019-Dec-05 07:16 022 0 gusting 3 8.3
2019-Dec-05 07:06 274 1 gusting 2 8.3
2019-Dec-05 06:56 165 0 gusting 2 8.3
2019-Dec-05 06:44 260 0 gusting 1 8.3
2019-Dec-05 06:34 045 8.3
2019-Dec-05 06:23 188 0 gusting 2 8.3
2019-Dec-05 06:13 090 8.3
2019-Dec-05 06:03 220 0 gusting 2 8.3
2019-Dec-05 05:52 256 0 gusting 1 8.3
2019-Dec-05 05:42 225 0 gusting 0 8.3
2019-Dec-05 05:31 238 0 gusting 1 8.3
2019-Dec-05 05:21 288 8.3
2019-Dec-05 05:10 248 8.3
2019-Dec-05 05:00 248 0 gusting 1 8.3
2019-Dec-05 04:49 231 0 gusting 2 8.3
2019-Dec-05 04:39 258 1 gusting 3 8.3
2019-Dec-05 04:29 045 2 gusting 3 8.3
2019-Dec-05 04:18 050 1 gusting 2 8.3
2019-Dec-05 04:08 052 0 gusting 2 8.3
2019-Dec-05 03:56 138 0 gusting 3 8.3
2019-Dec-05 03:46 074 0 gusting 2 8.3
2019-Dec-05 03:35 184 1 gusting 3 7.8
2019-Dec-05 03:24 234 1 gusting 4 7.8
2019-Dec-05 03:14 097 0 gusting 3 7.8
2019-Dec-05 03:04 210 1 gusting 4 7.8
2019-Dec-05 02:54 236 1 gusting 4 7.8
2019-Dec-05 02:44 230 1 gusting 3 7.8
2019-Dec-05 02:33 142 2 gusting 4 7.8
2019-Dec-05 02:23 008 1 gusting 4 7.8
2019-Dec-05 02:10 341 2 gusting 3 7.8
2019-Dec-05 01:59 171 1 gusting 4 7.8
2019-Dec-05 01:49 212 2 gusting 4 7.8
2019-Dec-05 01:39 229 1 gusting 3 7.8
2019-Dec-05 01:27 045 2 gusting 4 7.8
2019-Dec-05 01:16 215 0 gusting 2 7.8
2019-Dec-05 01:06 246 1 gusting 3 7.8
2019-Dec-05 00:54 055 2 gusting 4 7.8
2019-Dec-05 00:31 207 2 gusting 3 7.8
2019-Dec-05 00:20 081 1 gusting 3 8.3
2019-Dec-05 00:09 115 1 gusting 2 8.3
2019-Dec-04 23:59 094 1 gusting 3 8.3
2019-Dec-04 23:49 103 1 gusting 2 8.3
2019-Dec-04 23:38 106 1 gusting 2 8.3
2019-Dec-04 23:28 104 1 gusting 2 8.3
2019-Dec-04 23:18 106 1 gusting 3 8.3
2019-Dec-04 23:07 083 1 gusting 4 8.3
2019-Dec-04 22:57 063 1 gusting 3 8.3
2019-Dec-04 22:46 010 1 gusting 3 8.3
2019-Dec-04 22:36 124 1 gusting 3 8.3
2019-Dec-04 22:26 084 1 gusting 4 8.3
2019-Dec-04 22:16 088 1 gusting 4 8.3
2019-Dec-04 22:05 082 1 gusting 4 8.3
2019-Dec-04 21:54 050 1 gusting 3 8.3
2019-Dec-04 21:44 056 1 gusting 5 8.3
2019-Dec-04 21:33 113 1 gusting 3 8.3
2019-Dec-04 21:23 074 1 gusting 2 8.3
2019-Dec-04 21:13 071 0 gusting 3 8.3
2019-Dec-04 21:03 123 1 gusting 2 8.3
2019-Dec-04 20:52 082 1 gusting 3 8.3
2019-Dec-04 20:42 045 1 gusting 5 8.3
2019-Dec-04 20:32 038 0 gusting 2 8.3
2019-Dec-04 20:22 009 2 gusting 3 8.3
2019-Dec-04 20:11 111 1 gusting 3 8.3
2019-Dec-04 20:01 049 0 gusting 3 8.3
2019-Dec-04 19:50 349 1 gusting 2 8.9
2019-Dec-04 19:40 116 0 gusting 3 8.9
2019-Dec-04 19:30 039 1 gusting 4 8.9
2019-Dec-04 19:20 029 1 gusting 2 8.9
2019-Dec-04 19:09 083 0 gusting 2 8.9
2019-Dec-04 18:59 345 1 gusting 4 9.4
2019-Dec-04 18:48 104 1 gusting 3 9.4
2019-Dec-04 18:38 047 1 gusting 2 10.0
2019-Dec-04 18:27 10.0
2019-Dec-04 18:17 10.0
2019-Dec-04 18:07 10.0
2019-Dec-04 17:57 225 0 gusting 0 9.4
2019-Dec-04 17:47 158 9.4
2019-Dec-04 17:37 158 9.4
2019-Dec-04 17:27 158 9.4
2019-Dec-04 17:16 158 0 gusting 0 9.4
2019-Dec-04 17:06 090 9.4
2019-Dec-04 16:56 113 0 gusting 1 9.4
2019-Dec-04 16:44 090 9.4
2019-Dec-04 16:34 180 0 gusting 0 9.4
2019-Dec-04 16:24 203 9.4
2019-Dec-04 16:12 135 9.4
2019-Dec-04 16:02 135 0 gusting 0 9.4
2019-Dec-04 15:52 135 9.4
2019-Dec-04 15:41 158 9.4
2019-Dec-04 15:30 135 0 gusting 1 9.4
2019-Dec-04 15:20 135 0 gusting 1 9.4
2019-Dec-04 15:10 113 0 gusting 1 9.4
2019-Dec-04 15:00 135 0 gusting 1 9.4
2019-Dec-04 14:50 135 9.4
2019-Dec-04 14:40 141 1 gusting 2 9.4
2019-Dec-04 14:28 137 1 gusting 2 9.4
2019-Dec-04 14:18 136 1 gusting 3 9.4
2019-Dec-04 14:08 136 0 gusting 2 9.4
2019-Dec-04 13:58 092 0 gusting 1 10.0
2019-Dec-04 13:48 180 10.0
2019-Dec-04 13:37 173 0 gusting 2 10.0
2019-Dec-04 13:27 203 0 gusting 0 10.0
2019-Dec-04 13:15 205 1 gusting 1 10.0
2019-Dec-04 12:52 142 1 gusting 2 10.6
2019-Dec-04 12:41 143 2 gusting 2 10.6
2019-Dec-04 12:31 156 1 gusting 3 10.6
2019-Dec-04 12:21 154 2 gusting 3 10.6
2019-Dec-04 12:09 149 2 gusting 3 10.6
2019-Dec-04 11:59 134 2 gusting 4 10.6
2019-Dec-04 11:48 141 2 gusting 3 10.6
2019-Dec-04 11:37 153 3 gusting 4 10.6
2019-Dec-04 11:27 149 3 gusting 4 10.6
2019-Dec-04 11:16 150 3 gusting 3 10.6
2019-Dec-04 11:06 153 2 gusting 3 10.6
2019-Dec-04 10:56 135 1 gusting 2 10.6
2019-Dec-04 10:46 137 2 gusting 4 10.6
2019-Dec-04 10:35 177 3 gusting 4 10.6
2019-Dec-04 10:24 203 0 gusting 1 11.1
2019-Dec-04 10:13 225 1 gusting 5 11.1
2019-Dec-04 10:03 230 1 gusting 4 11.1
2019-Dec-04 09:52 222 1 gusting 2 11.1
2019-Dec-04 09:42 197 2 gusting 3 11.1
2019-Dec-04 09:31 172 2 gusting 3 11.1
2019-Dec-04 09:21 158 1 gusting 2 11.1
2019-Dec-04 09:11 168 1 gusting 2 11.1
2019-Dec-04 09:01 158 2 gusting 3 11.1
2019-Dec-04 08:51 151 1 gusting 2 11.1
2019-Dec-04 08:41 146 0 gusting 3 11.1
2019-Dec-04 08:30 149 1 gusting 3 11.1
2019-Dec-04 08:20 150 1 gusting 3 11.1
2019-Dec-04 08:09 150 1 gusting 3 11.1
2019-Dec-04 07:59 152 2 gusting 3 11.1
2019-Dec-04 07:49 146 2 gusting 3 11.1
2019-Dec-04 07:37 158 3 gusting 4 11.1
2019-Dec-04 07:27 153 3 gusting 4 11.1
2019-Dec-04 07:17 136 2 gusting 4 11.1
2019-Dec-04 07:05 131 2 gusting 3 11.1
2019-Dec-04 06:55 127 2 gusting 3 11.1
2019-Dec-04 06:44 137 2 gusting 2 11.1
2019-Dec-04 06:34 149 2 gusting 2 11.1
2019-Dec-04 06:24 137 1 gusting 2 11.1
2019-Dec-04 06:13 136 1 gusting 2 11.1
2019-Dec-04 06:03 136 2 gusting 2 11.1
2019-Dec-04 05:52 142 2 gusting 3 11.1
2019-Dec-04 05:42 146 2 gusting 3 11.1
2019-Dec-04 05:32 167 2 gusting 3 11.1
2019-Dec-04 05:21 159 3 gusting 5 11.1
2019-Dec-04 05:09 203 1 gusting 2 11.1
2019-Dec-04 04:59 158 1 gusting 3 11.1
2019-Dec-04 04:48 178 1 gusting 2 11.1
2019-Dec-04 04:38 156 1 gusting 4 11.1
2019-Dec-04 04:27 135 1 gusting 2 11.1
2019-Dec-04 04:17 135 2 gusting 3 11.1
2019-Dec-04 04:07 131 1 gusting 2 11.1
2019-Dec-04 03:56 148 1 gusting 3 11.1
2019-Dec-04 03:42 140 1 gusting 1 10.6
2019-Dec-04 03:32 159 0 gusting 1 10.6
2019-Dec-04 03:22 128 0 gusting 1 10.6
2019-Dec-04 03:11 131 0 gusting 1 10.6
2019-Dec-04 03:01 135 0 gusting 1 10.6
2019-Dec-04 02:49 136 0 gusting 1 10.6
2019-Dec-04 02:38 225 0 gusting 1 10.6
2019-Dec-04 02:27 158 0 gusting 1 10.6
2019-Dec-04 02:16 203 0 gusting 0 10.6
2019-Dec-04 02:06 169 0 gusting 1 10.6
2019-Dec-04 01:56 076 10.6
2019-Dec-04 01:45 068 0 gusting 1 10.6
2019-Dec-04 01:35 270 10.6
2019-Dec-04 01:25 264 0 gusting 1 10.6
2019-Dec-04 01:13 158 0 gusting 1 10.6
2019-Dec-04 01:02 149 0 gusting 2 10.6
2019-Dec-04 00:52 113 0 gusting 2 10.6
2019-Dec-04 00:42 088 0 gusting 2 10.6
2019-Dec-04 00:32 113 0 gusting 3 10.6
2019-Dec-04 00:21 113 0 gusting 2 10.6
2019-Dec-04 00:11 122 1 gusting 4 10.6
2019-Dec-03 23:59 084 2 gusting 3 10.6
2019-Dec-03 23:49 113 1 gusting 4 10.6
2019-Dec-03 23:39 124 1 gusting 4 10.6
2019-Dec-03 23:28 133 1 gusting 3 10.6
2019-Dec-03 23:15 141 2 gusting 3 10.6
2019-Dec-03 23:05 152 2 gusting 3 10.6
2019-Dec-03 22:54 129 3 gusting 4 10.6
2019-Dec-03 22:43 113 3 gusting 4 10.0
2019-Dec-03 22:32 107 1 gusting 2 10.6
2019-Dec-03 22:22 140 0 gusting 0 10.6
2019-Dec-03 22:12 203 0 gusting 1 10.6
2019-Dec-03 22:02 203 0 gusting 1 10.0
2019-Dec-03 21:51 158 10.0
2019-Dec-03 21:41 180 0 gusting 1 10.0
2019-Dec-03 21:31 180 0 gusting 1 10.0
2019-Dec-03 21:20 158 1 gusting 1 10.6
2019-Dec-03 21:09 158 1 gusting 3 10.6
2019-Dec-03 20:59 143 2 gusting 3 10.0
2019-Dec-03 20:49 147 2 gusting 3 10.0
2019-Dec-03 20:38 142 2 gusting 3 10.0
2019-Dec-03 20:27 139 2 gusting 2 10.0
2019-Dec-03 20:17 147 2 gusting 3 10.0
2019-Dec-03 20:07 155 1 gusting 2 10.0
2019-Dec-03 19:56 142 1 gusting 2 10.0
2019-Dec-03 19:45 158 1 gusting 1 10.0
2019-Dec-03 19:34 158 0 gusting 1 10.0
2019-Dec-03 19:24 158 0 gusting 0 10.0
2019-Dec-03 19:14 212 0 gusting 2 10.0
2019-Dec-03 19:03 200 1 gusting 1 10.0
2019-Dec-03 18:53 178 0 gusting 1 9.4
2019-Dec-03 18:43 090 9.4
2019-Dec-03 18:33 113 0 gusting 2 10.0
2019-Dec-03 18:23 174 0 gusting 2 10.0
2019-Dec-03 18:11 248 1 gusting 2 10.0
2019-Dec-03 18:01 225 10.0